Regional Weather Roundup
Issued by NWS

Home | Current Version | Previous Version | Text Only | Print | Product List | Glossary Off
Versions: 1 2 3 4 5 6 7 8 9 10 11 12 13 14 15 16 17 18 19 20 21 22 23 24 25 26 27 28 29 30 31 32 33 34 35 36 37 38 39 40 41 42 43 44 45 46 47 48 49 50

000
ASUS43 KBIS 270920
RWRND

NORTH DAKOTA REGIONAL WEATHER ROUNDUP
NATIONAL WEATHER SERVICE BISMARCK ND
300 AM CST FRI FEB 27 2015

NOTE: "FAIR" INDICATES FEW OR NO CLOUDS BELOW 12,000 FEET WITH NO
SIGNIFICANT WEATHER AND/OR OBSTRUCTIONS TO VISIBILITY.


NDZ001>003-009>011-017-271000-
NORTHWEST NORTH DAKOTA

CITY           SKY/WX    TMP DP  RH WIND       PRES   REMARKS
WILLISTON      PTCLDY   -14 -19  79 CALM      30.36F
MINOT          MOCLDY    -9 -15  75 SW10      30.38F WCI -27
MINOT AFB      MOCLDY   -14 -19  76 CALM      30.39F
$$

NDZ018>021-031>035-040>046-271000-
SOUTHWEST NORTH DAKOTA

CITY           SKY/WX    TMP DP  RH WIND       PRES   REMARKS
BISMARCK       CLEAR     -8 -13  78 CALM      30.45F
DICKINSON      CLEAR     -5 -11  75 S7        30.30F WCI -19
GARRISON         N/A    -15 -21  74 CALM      30.40F
HETTINGER ARPT CLEAR     -3  -9  75 S6        30.34F WCI -15
$$

NDZ004>008-012>016-024-026-027-054-271000-
NORTHEAST NORTH DAKOTA

CITY           SKY/WX    TMP DP  RH WIND       PRES   REMARKS
GRAND FORKS    CLEAR    -12 -18  74 SW3       30.46F
GRND FRKS AFB  CLEAR     -9 -16  71 W6        30.45F WCI -22
DEVILS LAKE    CLEAR    N/A N/A N/A MISG        N/A
$$

NDZ022-023-025-028>030-036>039-047>053-271000-
SOUTHEAST NORTH DAKOTA

CITY           SKY/WX    TMP DP  RH WIND       PRES   REMARKS
FARGO          CLEAR     -7 -13  75 SW5       30.49F WCI -18
JAMESTOWN      PTCLDY    -9 -15  75 W9        30.43F WCI -26
$$



USA.gov is the U.S. government's official web portal to all federal, state and local government web resources and services.